Location: Paderno d�Adda
(45.6667°N, 9.4333°E)
Time: 13:20:44
(UTC+00:00)

Ariane Rocket - Pass Details

Date: 19 September 2020
Orbit: 760 x 770 km, 98.7° (Epoch: 30 October)

Event Time Altitude Azimuth Distance (km) Brightness Sun altitude
Exits shadow 19:12:54 14° 172° (S) 2,020 4.9 -19.2°
Maximum altitude 19:17:15 75° 256° (WSW) 796 3.1 -19.9°
Drops below altitude 10° 19:22:21 10° 343° (NNW) 2,314 6.0 -20.7°
Sets 19:24:41 0° 345° (NNW) 3,247 6.8 -21.1°
